Tijuana, Mexico

12:53 AM PST on January 23, 2018 (GMT -0800)
Gen Abelardo L Rodriguez International

Weather History for MMTJ - December, 2012

Change the Weather History Date:

Sunday, December 16, 2012

  Actual Average Record
Temperature  
Mean Temperature 54 °F -  
Max Temperature 59 °F 67 °F 84 °F (1998)
Min Temperature 50 °F 46 °F 35 °F (2015)
Degree Days  
Heating Degree Days 10    
Growing Degree Days 4 (Base 50)    
Moisture  
Dew Point 46 °F    
Average Humidity 75    
Maximum Humidity 94    
Minimum Humidity 55    
Precipitation  
Precipitation 0.05 in - - ()
Sea Level Pressure  
Sea Level Pressure 30.17 in    
Wind  
Wind Speed 2 mph ()    
Max Wind Speed 8 mph    
Max Gust Speed -    
Visibility 5.9 miles    
Events      
Averages and records for this station are not official NWS values.
T = Trace of Precipitation, MM = Missing Value Source: Averaged Metar Reports

Daily Weather History Graph

Daily Weather History Graph

Search for Another Location

Airport or City:

Trip Planner

Search our weather history database for the weather conditions in past years. The results will help you decide how hot, cold, wet, or windy it might be!

Date:

Astronomy

Dec. 16, 2012 Rise Set
Actual Time 6:43 AM PST 4:44 PM PST
Civil Twilight 6:16 AM PST 5:11 PM PST
Nautical Twilight 5:45 AM PST 5:42 PM PST
Astronomical Twilight 5:15 AM PST 6:12 PM PST
Moon 9:29 AM PST (12/16) 8:52 PM PST (12/16)
Length of Visible Light 10h 55m
Length of Day
10h 01m
Waxing Crescent, 17% of the Moon is Illuminated
Dec 16
Waxing Crescent
Dec 19
First Quarter
Dec 28
Full
Jan 4
Last Quarter
Jan 11
New

Hourly Weather History & Observations

Time (PST) Temp. Dew Point Humidity Pressure Visibility Wind Dir Wind Speed Gust Speed Precip Events Conditions
12:45 AM 50.0 °F 41.0 °F 71% 30.19 in 7.0 mi ENE 5.8 mph - N/A   Mostly Cloudy
1:43 AM 51.8 °F 41.0 °F 67% 30.14 in 7.0 mi Calm Calm - N/A   Mostly Cloudy
2:42 AM 51.8 °F 42.8 °F 71% 30.15 in 7.0 mi Calm Calm - N/A   Overcast
3:51 AM 50.0 °F 42.8 °F 76% 30.18 in 7.0 mi Calm Calm - N/A   Overcast
4:50 AM 50.0 °F 44.6 °F 82% 30.15 in 7.0 mi Calm Calm - N/A   Overcast
5:43 AM 50.0 °F 44.6 °F 82% 30.15 in 7.0 mi Calm Calm - N/A   Overcast
6:45 AM 50.0 °F 44.6 °F 82% 30.19 in 8.0 mi Calm Calm - N/A   Mostly Cloudy
7:40 AM 50.0 °F 44.6 °F 82% 30.18 in 7.0 mi ESE 4.6 mph - N/A   Mostly Cloudy
8:42 AM 53.6 °F 44.6 °F 72% 30.20 in 7.0 mi ESE 6.9 mph - N/A   Mostly Cloudy
9:42 AM 57.2 °F 44.6 °F 63% 30.22 in 7.0 mi ESE 6.9 mph - N/A   Partly Cloudy
10:42 AM 59.0 °F 42.8 °F 55% 30.20 in 7.0 mi Calm Calm - N/A   Scattered Clouds
11:41 AM 59.0 °F 42.8 °F 55% 30.18 in 7.0 mi South 3.5 mph - N/A   Overcast
12:40 PM 59.0 °F 44.6 °F 59% 30.21 in 7.0 mi SSE 3.5 mph - N/A   Overcast
1:40 PM 59.0 °F 44.6 °F 59% 30.15 in 6.0 mi Calm Calm - N/A   Overcast
2:46 PM 57.2 °F 46.4 °F 67% 30.12 in 6.0 mi Calm Calm - N/A   Overcast
3:50 PM 55.4 °F 48.2 °F 77% 30.15 in 5.0 mi ESE 6.9 mph - N/A   Overcast
4:45 PM 55.4 °F 48.2 °F 77% 30.14 in 5.0 mi Calm Calm - N/A   Overcast
5:46 PM 55.4 °F 48.2 °F 77% 30.12 in 4.0 mi ENE 8.1 mph - N/A   Overcast
6:50 PM 55.4 °F 48.2 °F 77% 30.15 in 4.0 mi ESE 6.9 mph - N/A   Overcast
7:45 PM 55.4 °F 50.0 °F 82% 30.15 in 3.0 mi Calm Calm - N/A   Light Drizzle
8:17 PM 55.4 °F 50.0 °F 82% 30.15 in 3.0 mi Calm Calm - N/A   Light Drizzle
8:48 PM 55.4 °F 51.8 °F 88% 30.17 in 3.0 mi Calm Calm - N/A   Light Drizzle
9:45 PM 55.4 °F 51.8 °F 88% 30.21 in 6.0 mi East 4.6 mph - N/A   Overcast
10:40 PM 53.6 °F 51.8 °F 94% 30.18 in 6.0 mi East 4.6 mph - N/A   Mostly Cloudy
11:43 PM 55.4 °F 50.0 °F 82% 30.17 in 5.0 mi East 4.6 mph - N/A   Mostly Cloudy